Precipitable_Water
1.25 1.25 1.26 1.24 1.23 1.23 1.25 1.28 1.32 1.37 1.38 1.38 1.32 1.29 1.29 1.31 1.30 1.33 1.34 1.31 1.30 1.26 1.23 1.19 1.17 1.12 0.98 0.88 0.88 0.90 0.91 0.92 0.96 0.97 0.98 0.98 1.01 1.02 1.03 1.04 1.03 1.05 1.07 1.09 1.12 1.10 1.08 1.07 1.05 1.07 1.11 1.08 1.07 1.08 1.07 1.10 1.17 1.08 1.05 1.02 0.97 0.93 0.85 0.79 0.73 0.71 0.75 0.79 0.74 0.75 0.80 0.77 0.69 0.62 0.56 0.58 0.59 0.60 0.60 0.58 0.56 0.54 0.54 0.55 0.56
1.21 1.23 1.24 1.25 1.24 1.26 1.28 1.31 1.36 1.38 1.36 1.33 1.25 1.25 1.26 1.31 1.35 1.36 1.31 1.34 1.28 1.26 1.22 1.15 1.09 0.98 0.88 0.85 0.89 0.94 0.93 0.93 0.96 0.97 0.94 0.92 0.93 0.95 0.93 0.94 0.97 1.02 1.07 1.07 1.09 1.09 1.08 1.05 1.05 1.07 1.11 1.08 1.06 1.07 1.08 1.09 1.10 1.04 1.04 1.06 1.00 0.93 0.88 0.79 0.72 0.68 0.65 0.71 0.68 0.72 0.73 0.72 0.63 0.62 0.57 0.58 0.59 0.58 0.55 0.53 0.54 0.54 0.54 0.56 0.57
1.27 1.26 1.24 1.24 1.25 1.28 1.31 1.32 1.35 1.36 1.31 1.27 1.23 1.25 1.27 1.30 1.34 1.33 1.34 1.35 1.30 1.24 1.11 1.02 0.96 0.93 0.92 0.89 0.92 0.96 0.95 0.97 0.97 0.94 0.88 0.83 0.83 0.86 0.88 0.89 0.90 0.97 1.03 1.05 1.08 1.10 1.08 1.05 1.04 1.07 1.10 1.08 1.12 1.10 1.08 1.05 1.02 0.97 0.96 0.98 0.95 0.91 0.85 0.81 0.74 0.65 0.62 0.62 0.66 0.63 0.62 0.61 0.58 0.57 0.57 0.59 0.59 0.57 0.51 0.50 0.51 0.53 0.55 0.56 0.57
1.26 1.26 1.24 1.26 1.29 1.28 1.27 1.32 1.34 1.30 1.28 1.25 1.24 1.22 1.27 1.30 1.34 1.33 1.26 1.28 1.24 1.15 1.00 0.96 0.93 0.89 0.92 0.90 0.91 0.92 0.94 0.96 0.93 0.88 0.83 0.82 0.84 0.86 0.89 0.90 0.89 0.90 1.00 1.05 1.08 1.09 1.07 1.04 1.05 1.12 1.12 1.06 1.06 1.06 1.02 1.00 0.97 0.97 0.96 0.95 0.91 0.87 0.84 0.83 0.79 0.70 0.66 0.60 0.60 0.53 0.54 0.52 0.54 0.55 0.56 0.57 0.57 0.54 0.50 0.50 0.51 0.51 0.53 0.54 0.55
1.25 1.26 1.26 1.26 1.27 1.27 1.27 1.32 1.30 1.28 1.26 1.27 1.25 1.24 1.27 1.36 1.35 1.31 1.28 1.21 1.13 1.00 0.95 0.91 0.84 0.86 0.90 0.89 0.88 0.88 0.90 0.90 0.85 0.82 0.82 0.84 0.81 0.81 0.84 0.90 0.89 0.89 0.94 1.02 1.07 1.07 1.08 1.09 1.11 1.06 1.15 1.01 0.98 0.98 0.98 0.96 0.95 0.94 0.92 0.94 0.92 0.89 0.83 0.79 0.76 0.74 0.70 0.65 0.59 0.58 0.54 0.51 0.53 0.55 0.55 0.51 0.53 0.52 0.51 0.48 0.47 0.48 0.50 0.53 0.53
1.20 1.22 1.26 1.24 1.28 1.31 1.27 1.31 1.30 1.27 1.26 1.25 1.25 1.28 1.30 1.31 1.31 1.30 1.24 1.10 1.03 0.95 0.84 0.79 0.81 0.85 0.89 0.90 0.89 0.87 0.86 0.83 0.80 0.80 0.81 0.82 0.83 0.86 0.89 0.90 0.89 0.90 0.93 0.96 0.99 1.04 1.08 1.09 1.15 1.10 1.00 0.95 0.91 0.91 0.92 0.91 0.89 0.85 0.86 0.89 0.91 0.90 0.83 0.79 0.76 0.74 0.73 0.69 0.67 0.65 0.63 0.53 0.47 0.47 0.48 0.49 0.48 0.48 0.48 0.48 0.49 0.48 0.48 0.50 0.51
1.24 1.25 1.27 1.27 1.28 1.25 1.28 1.31 1.29 1.29 1.27 1.26 1.27 1.26 1.26 1.25 1.21 1.19 1.15 1.08 0.98 0.91 0.81 0.80 0.85 0.84 0.82 0.88 0.87 0.85 0.84 0.81 0.80 0.82 0.85 0.87 0.88 0.89 0.90 0.91 0.91 0.94 0.96 0.96 0.95 0.99 1.01 1.00 0.98 0.96 0.92 0.89 0.87 0.85 0.85 0.84 0.83 0.82 0.81 0.87 0.90 0.89 0.83 0.79 0.79 0.77 0.75 0.73 0.71 0.70 0.68 0.66 0.60 0.54 0.56 0.58 0.57 0.56 0.53 0.52 0.51 0.54 0.54 0.54 0.54
1.20 1.23 1.26 1.27 1.23 1.24 1.30 1.32 1.28 1.29 1.28 1.26 1.25 1.25 1.23 1.20 1.17 1.15 1.12 1.04 0.98 0.89 0.78 0.78 0.81 0.82 0.78 0.81 0.83 0.83 0.81 0.80 0.81 0.84 0.85 0.86 0.89 0.89 0.91 0.92 0.93 0.94 0.94 0.93 0.92 0.92 0.93 0.93 0.91 0.91 0.91 0.90 0.89 0.88 0.87 0.86 0.85 0.81 0.83 0.88 0.90 0.87 0.84 0.82 0.80 0.79 0.76 0.74 0.71 0.69 0.69 0.67 0.68 0.71 0.73 0.72 0.68 0.67 0.68 0.65 0.60 0.61 0.63 0.66 0.67
1.19 1.25 1.29 1.26 1.26 1.31 1.33 1.34 1.33 1.30 1.25 1.26 1.25 1.23 1.20 1.15 1.11 1.05 1.06 1.02 1.00 0.87 0.80 0.77 0.77 0.77 0.78 0.80 0.79 0.81 0.80 0.79 0.81 0.82 0.83 0.86 0.89 0.89 0.92 0.93 0.92 0.90 0.89 0.87 0.87 0.88 0.88 0.89 0.89 0.89 0.91 0.90 0.91 0.92 0.93 0.93 0.89 0.84 0.84 0.85 0.84 0.84 0.86 0.85 0.83 0.82 0.78 0.75 0.72 0.72 0.69 0.67 0.66 0.66 0.67 0.69 0.69 0.69 0.74 0.76 0.72 0.72 0.72 0.71 0.73
1.22 1.23 1.22 1.24 1.28 1.31 1.33 1.33 1.34 1.33 1.29 1.28 1.29 1.27 1.20 1.12 1.03 1.00 1.01 1.02 0.94 0.85 0.80 0.79 0.78 0.78 0.77 0.77 0.76 0.78 0.76 0.79 0.82 0.83 0.86 0.88 0.89 0.90 0.92 0.92 0.91 0.90 0.88 0.88 0.89 0.90 0.89 0.88 0.88 0.88 0.88 0.89 0.89 0.90 0.92 0.93 0.93 0.93 0.90 0.89 0.87 0.83 0.83 0.84 0.84 0.82 0.79 0.76 0.73 0.72 0.69 0.67 0.67 0.68 0.68 0.70 0.73 0.75 0.73 0.74 0.71 0.74 0.75 0.74 0.76
1.16 1.22 1.25 1.27 1.31 1.31 1.30 1.29 1.32 1.31 1.29 1.25 1.26 1.27 1.16 1.08 1.01 1.01 1.01 0.99 0.91 0.86 0.82 0.80 0.80 0.81 0.79 0.76 0.76 0.77 0.76 0.81 0.85 0.86 0.88 0.90 0.90 0.90 0.91 0.92 0.93 0.90 0.90 0.91 0.91 0.93 0.94 0.96 0.95 0.94 0.92 0.90 0.89 0.89 0.89 0.91 0.92 0.91 0.93 0.95 0.93 0.91 0.89 0.86 0.85 0.84 0.81 0.78 0.77 0.75 0.73 0.71 0.72 0.74 0.73 0.74 0.75 0.75 0.74 0.74 0.73 0.73 0.71 0.69 0.66
1.18 1.18 1.25 1.31 1.31 1.28 1.27 1.30 1.30 1.28 1.26 1.24 1.21 1.22 1.14 1.04 1.02 1.02 1.01 0.98 0.92 0.87 0.82 0.81 0.82 0.83 0.81 0.79 0.77 0.78 0.79 0.84 0.88 0.88 0.90 0.91 0.92 0.93 0.94 0.94 0.94 0.93 0.94 0.93 0.95 0.96 0.97 0.99 1.00 1.02 1.02 1.00 0.99 0.97 0.95 0.94 0.93 0.93 0.92 0.91 0.92 0.94 0.95 0.92 0.90 0.88 0.90 0.88 0.86 0.84 0.82 0.80 0.79 0.78 0.76 0.76 0.76 0.76 0.76 0.76 0.74 0.74 0.72 0.70 0.69
1.21 1.20 1.22 1.25 1.29 1.28 1.27 1.28 1.26 1.23 1.20 1.22 1.24 1.18 1.08 1.04 1.04 1.00 0.97 0.98 0.94 0.86 0.83 0.83 0.83 0.85 0.82 0.80 0.81 0.83 0.85 0.89 0.90 0.91 0.93 0.95 0.96 0.97 0.99 1.00 0.98 0.97 0.98 0.99 0.99 1.00 1.02 1.03 1.03 1.03 1.04 1.05 1.03 1.01 0.98 0.98 0.99 0.99 0.97 0.96 0.94 0.92 0.91 0.93 0.96 0.92 0.91 0.87 0.87 0.89 0.90 0.90 0.87 0.88 0.91 0.89 0.88 0.79 0.77 0.75 0.76 0.76 0.76 0.73 0.74
1.18 1.20 1.23 1.22 1.27 1.28 1.28 1.25 1.21 1.20 1.19 1.20 1.24 1.15 1.07 1.05 1.05 1.04 0.99 0.96 0.92 0.87 0.87 0.85 0.86 0.86 0.85 0.84 0.85 0.89 0.92 0.95 0.97 0.99 1.00 1.00 1.01 1.02 1.02 1.03 1.03 1.02 1.04 1.03 1.02 1.02 1.03 1.01 1.01 1.00 1.01 1.00 0.98 0.96 0.95 0.94 0.93 0.93 0.94 0.95 0.96 0.98 0.98 0.99 0.98 0.97 0.95 0.92 0.90 0.86 0.91 0.93 0.89 0.93 0.98 0.98 0.92 0.87 0.86 0.83 0.84 0.83 0.83 0.81 0.84
1.12 1.17 1.19 1.20 1.22 1.24 1.25 1.22 1.21 1.21 1.22 1.21 1.16 1.13 1.12 1.07 1.05 1.05 1.01 0.94 0.90 0.87 0.87 0.86 0.87 0.88 0.88 0.89 0.90 0.91 0.96 1.02 1.05 1.05 1.05 1.05 1.04 1.04 1.06 1.06 1.07 1.07 1.08 1.08 1.07 1.06 1.05 1.04 1.02 1.00 0.99 0.96 0.95 0.94 0.93 0.92 0.92 0.90 0.88 0.86 0.88 0.90 0.93 0.95 0.97 0.98 0.98 0.98 0.96 0.96 0.96 0.99 0.99 1.00 1.02 1.05 1.02 1.01 1.00 0.95 0.93 0.91 0.92 0.95 0.94
1.06 1.10 1.17 1.20 1.21 1.20 1.22 1.23 1.22 1.21 1.21 1.19 1.17 1.18 1.16 1.11 1.05 1.06 1.04 1.00 0.98 0.95 0.94 0.92 0.88 0.88 0.90 0.91 0.91 0.92 0.97 1.02 1.06 1.07 1.07 1.06 1.06 1.06 1.05 1.03 1.04 1.05 1.06 1.09 1.10 1.10 1.10 1.08 1.04 1.00 0.98 0.96 0.95 0.96 0.95 0.94 0.87 0.82 0.80 0.82 0.85 0.90 0.93 0.97 1.00 1.02 1.02 1.03 1.03 1.03 1.04 1.05 1.05 1.04 1.03 1.03 1.02 1.02 1.01 1.02 1.01 0.99 0.94 0.89 0.84
0.98 1.06 1.12 1.17 1.21 1.21 1.20 1.19 1.17 1.20 1.20 1.18 1.17 1.17 1.17 1.16 1.12 1.10 1.06 1.05 1.01 0.98 0.98 0.98 0.96 0.93 0.92 0.93 0.92 0.93 0.95 0.99 1.02 1.02 1.02 1.03 1.04 1.05 1.07 1.04 1.02 1.03 1.03 1.05 1.05 1.05 1.06 1.05 1.01 0.97 0.95 0.93 0.94 0.93 0.91 0.88 0.83 0.81 0.83 0.85 0.89 0.92 0.96 1.03 1.04 1.04 1.05 1.05 1.06 1.05 1.05 1.03 1.02 1.02 1.01 1.02 1.01 1.01 0.99 0.93 0.90 0.93 0.87 0.83 0.83
0.92 0.97 1.03 1.10 1.16 1.24 1.26 1.22 1.20 1.17 1.17 1.16 1.14 1.14 1.15 1.18 1.16 1.15 1.08 1.07 1.03 1.02 1.03 1.01 1.03 1.03 0.99 0.97 0.96 0.91 0.92 0.96 0.98 0.99 0.98 0.98 0.98 1.02 1.05 1.03 1.01 1.01 1.00 1.00 0.99 0.98 1.00 1.00 0.99 0.97 0.95 0.92 0.92 0.91 0.91 0.91 0.89 0.90 0.91 0.90 0.90 0.91 0.95 1.01 1.04 1.05 1.06 1.05 1.05 1.04 1.03 1.02 1.02 1.02 1.02 1.01 1.00 0.99 0.93 0.85 0.89 0.89 0.84 0.83 0.80
0.88 0.91 0.98 1.04 1.07 1.10 1.18 1.23 1.23 1.20 1.17 1.17 1.18 1.17 1.16 1.12 1.14 1.17 1.15 1.12 1.11 1.10 1.08 1.05 1.05 1.06 1.05 1.02 0.99 0.95 0.95 0.96 0.97 0.97 0.98 0.99 0.99 0.98 0.97 0.96 0.94 0.94 0.94 0.94 0.97 0.97 0.99 1.00 1.00 0.99 0.98 0.98 0.96 0.94 0.94 0.95 0.93 0.93 0.92 0.89 0.86 0.86 0.90 0.95 0.95 0.95 0.96 0.97 0.98 0.99 0.99 0.99 1.00 1.00 1.00 0.99 0.98 0.97 0.97 0.95 0.96 0.91 0.85 0.85 0.85
0.85 0.89 0.95 1.01 1.05 1.08 1.11 1.12 1.13 1.18 1.20 1.19 1.19 1.20 1.19 1.13 1.12 1.13 1.14 1.13 1.11 1.11 1.10 1.06 1.01 0.99 1.01 1.02 1.00 1.00 0.97 0.96 0.95 0.93 0.92 0.94 0.95 0.96 0.97 0.92 0.89 0.92 0.95 0.95 0.94 0.96 0.98 0.99 1.00 1.00 1.00 0.98 0.96 0.95 0.95 0.96 0.92 0.88 0.84 0.78 0.75 0.72 0.79 0.80 0.82 0.85 0.86 0.88 0.90 0.93 0.94 0.97 0.98 0.98 0.98 0.98 0.98 0.99 0.98 0.97 0.95 0.92 0.87 0.85 0.85
0.83 0.85 0.91 0.95 0.99 1.04 1.09 1.12 1.14 1.16 1.18 1.21 1.22 1.19 1.17 1.14 1.14 1.11 1.10 1.10 1.07 1.06 1.05 1.06 1.05 1.04 1.04 1.04 1.01 1.02 1.02 0.98 0.96 0.96 0.95 0.95 0.97 0.96 0.96 0.94 0.94 0.93 0.92 0.93 0.93 0.93 0.94 0.97 0.99 0.99 0.97 0.96 0.95 0.94 0.92 0.90 0.87 0.82 0.78 0.74 0.73 0.75 0.77 0.75 0.76 0.78 0.78 0.79 0.80 0.81 0.82 0.83 0.84 0.85 0.85 0.84 0.84 0.85 0.86 0.86 0.85 0.85 0.82 0.78 0.77
0.83 0.84 0.86 0.88 0.92 0.96 1.00 1.08 1.12 1.14 1.17 1.17 1.14 1.14 1.17 1.18 1.17 1.14 1.13 1.12 1.08 1.06 1.05 1.04 1.02 1.00 1.00 1.00 0.98 0.97 0.98 0.98 0.96 0.97 0.98 0.99 1.00 1.01 0.99 0.97 0.98 0.95 0.93 0.92 0.92 0.92 0.94 0.96 0.95 0.95 0.95 0.95 0.92 0.89 0.86 0.81 0.78 0.74 0.73 0.73 0.72 0.71 0.71 0.71 0.71 0.70 0.69 0.68 0.67 0.66 0.66 0.66 0.67 0.68 0.70 0.71 0.73 0.73 0.74 0.74 0.75 0.76 0.77 0.77 0.74
0.84 0.83 0.84 0.85 0.86 0.88 0.91 0.96 1.01 1.07 1.11 1.12 1.12 1.11 1.14 1.15 1.15 1.16 1.13 1.09 1.05 1.01 0.98 0.97 0.93 0.91 0.90 0.90 0.90 0.89 0.90 0.90 0.89 0.89 0.91 0.93 0.95 0.96 0.96 0.95 0.96 0.96 0.93 0.92 0.93 0.94 0.95 0.93 0.92 0.90 0.87 0.84 0.80 0.77 0.76 0.74 0.72 0.69 0.68 0.65 0.63 0.60 0.58 0.54 0.53 0.51 0.51 0.50 0.50 0.48 0.49 0.51 0.51 0.51 0.53 0.55 0.59 0.61 0.63 0.64 0.65 0.66 0.66 0.68 0.71
0.81 0.81 0.82 0.83 0.84 0.85 0.87 0.88 0.89 0.93 0.99 1.04 1.06 1.08 1.10 1.11 1.13 1.11 1.12 1.08 1.02 0.97 0.94 0.92 0.89 0.88 0.86 0.85 0.87 0.89 0.91 0.92 0.91 0.90 0.90 0.90 0.89 0.89 0.89 0.89 0.90 0.90 0.91 0.89 0.89 0.87 0.84 0.81 0.79 0.77 0.76 0.75 0.73 0.72 0.69 0.67 0.63 0.60 0.56 0.50 0.44 0.41 0.38 0.36 0.35 0.35 0.36 0.36 0.36 0.36 0.37 0.41 0.43 0.44 0.46 0.49 0.50 0.51 0.53 0.55 0.57 0.58 0.58 0.59 0.62
0.74 0.76 0.78 0.78 0.78 0.80 0.83 0.84 0.84 0.86 0.89 0.93 0.95 0.98 1.02 1.05 1.05 1.10 1.09 1.05 1.00 0.96 0.95 0.93 0.90 0.88 0.87 0.85 0.84 0.85 0.86 0.87 0.87 0.88 0.88 0.87 0.86 0.84 0.83 0.82 0.81 0.79 0.76 0.76 0.75 0.73 0.71 0.69 0.68 0.69 0.69 0.69 0.67 0.66 0.62 0.56 0.49 0.43 0.40 0.39 0.39 0.37 0.36 0.35 0.34 0.34 0.31 0.31 0.32 0.34 0.36 0.39 0.41 0.44 0.49 0.51 0.52 0.51 0.50 0.51 0.53 0.54 0.55 0.56 0.57
0.74 0.74 0.75 0.76 0.76 0.74 0.75 0.77 0.78 0.80 0.83 0.85 0.87 0.91 0.94 0.96 0.96 0.98 1.01 1.00 0.97 0.93 0.91 0.89 0.86 0.84 0.82 0.82 0.81 0.81 0.81 0.81 0.80 0.80 0.79 0.78 0.77 0.76 0.75 0.74 0.72 0.70 0.66 0.63 0.62 0.62 0.61 0.59 0.58 0.57 0.56 0.54 0.52 0.48 0.45 0.43 0.42 0.41 0.41 0.41 0.41 0.40 0.38 0.36 0.35 0.33 0.31 0.32 0.32 0.33 0.35 0.38 0.40 0.43 0.46 0.47 0.46 0.46 0.47 0.47 0.47 0.48 0.49 0.49 0.49
0.75 0.76 0.77 0.77 0.77 0.75 0.73 0.71 0.70 0.70 0.74 0.80 0.82 0.83 0.86 0.89 0.91 0.92 0.94 0.94 0.92 0.89 0.88 0.87 0.84 0.82 0.79 0.78 0.77 0.76 0.75 0.74 0.72 0.72 0.72 0.71 0.70 0.69 0.68 0.67 0.66 0.63 0.59 0.56 0.54 0.50 0.48 0.46 0.45 0.45 0.43 0.43 0.43 0.44 0.45 0.45 0.43 0.42 0.42 0.42 0.42 0.42 0.41 0.39 0.37 0.36 0.35 0.34 0.34 0.36 0.38 0.41 0.43 0.43 0.42 0.41 0.40 0.42 0.44 0.43 0.42 0.43 0.45 0.47 0.45
0.74 0.75 0.76 0.77 0.78 0.78 0.76 0.74 0.72 0.69 0.68 0.67 0.72 0.77 0.79 0.79 0.80 0.82 0.85 0.87 0.86 0.84 0.83 0.82 0.80 0.79 0.76 0.75 0.73 0.72 0.72 0.71 0.70 0.69 0.68 0.68 0.67 0.66 0.63 0.59 0.55 0.52 0.48 0.45 0.43 0.43 0.41 0.41 0.41 0.41 0.41 0.40 0.41 0.41 0.42 0.42 0.41 0.40 0.40 0.41 0.41 0.41 0.40 0.39 0.38 0.35 0.34 0.34 0.34 0.34 0.35 0.36 0.36 0.38 0.39 0.39 0.39 0.42 0.43 0.42 0.42 0.42 0.43 0.42 0.40
0.75 0.75 0.76 0.76 0.77 0.78 0.77 0.76 0.74 0.73 0.72 0.71 0.70 0.69 0.70 0.75 0.77 0.78 0.81 0.83 0.83 0.82 0.81 0.79 0.78 0.77 0.75 0.72 0.70 0.69 0.69 0.68 0.70 0.71 0.68 0.65 0.60 0.55 0.51 0.47 0.45 0.42 0.41 0.40 0.39 0.40 0.39 0.38 0.37 0.38 0.38 0.37 0.38 0.38 0.39 0.39 0.39 0.41 0.40 0.40 0.39 0.38 0.36 0.34 0.31 0.30 0.31 0.31 0.30 0.30 0.31 0.32 0.34 0.36 0.36 0.36 0.37 0.40 0.42 0.41 0.42 0.41 0.42 0.42 0.40
0.70 0.72 0.74 0.75 0.76 0.76 0.75 0.75 0.74 0.73 0.72 0.73 0.73 0.74 0.76 0.74 0.71 0.70 0.73 0.77 0.78 0.78 0.76 0.74 0.74 0.74 0.72 0.71 0.69 0.64 0.63 0.63 0.63 0.60 0.55 0.50 0.46 0.43 0.42 0.42 0.41 0.40 0.41 0.41 0.39 0.36 0.36 0.35 0.36 0.36 0.37 0.37 0.37 0.38 0.39 0.39 0.38 0.37 0.37 0.37 0.36 0.35 0.34 0.33 0.32 0.31 0.32 0.32 0.32 0.32 0.32 0.33 0.34 0.35 0.35 0.36 0.37 0.39 0.41 0.41 0.40 0.41 0.39 0.39 0.37
0.60 0.65 0.69 0.70 0.71 0.72 0.72 0.72 0.73 0.72 0.72 0.71 0.71 0.71 0.72 0.73 0.74 0.73 0.70 0.67 0.67 0.68 0.70 0.71 0.70 0.69 0.65 0.62 0.63 0.63 0.60 0.57 0.51 0.46 0.41 0.37 0.35 0.36 0.40 0.42 0.42 0.41 0.41 0.39 0.37 0.36 0.35 0.35 0.36 0.37 0.38 0.38 0.37 0.37 0.37 0.36 0.35 0.35 0.34 0.35 0.34 0.33 0.31 0.30 0.31 0.31 0.31 0.31 0.31 0.32 0.33 0.34 0.34 0.35 0.35 0.36 0.37 0.39 0.40 0.42 0.42 0.42 0.41 0.41 0.40
0.54 0.55 0.57 0.60 0.64 0.65 0.65 0.65 0.64 0.64 0.64 0.64 0.63 0.61 0.60 0.60 0.64 0.68 0.67 0.65 0.63 0.61 0.59 0.58 0.57 0.56 0.55 0.53 0.49 0.46 0.44 0.41 0.39 0.37 0.35 0.35 0.35 0.38 0.42 0.44 0.44 0.43 0.42 0.41 0.36 0.36 0.36 0.35 0.35 0.35 0.35 0.34 0.35 0.35 0.35 0.33 0.33 0.33 0.32 0.30 0.29 0.30 0.30 0.30 0.32 0.32 0.31 0.31 0.30 0.31 0.32 0.33 0.35 0.36 0.37 0.38 0.37 0.38 0.39 0.40 0.41 0.41 0.42 0.42 0.41
0.54 0.55 0.56 0.55 0.54 0.54 0.55 0.56 0.56 0.57 0.56 0.54 0.53 0.52 0.51 0.50 0.49 0.50 0.55 0.56 0.55 0.53 0.51 0.50 0.48 0.47 0.45 0.44 0.43 0.42 0.40 0.40 0.40 0.39 0.39 0.38 0.40 0.42 0.44 0.45 0.45 0.44 0.42 0.38 0.35 0.35 0.35 0.34 0.34 0.34 0.34 0.33 0.34 0.33 0.32 0.31 0.30 0.30 0.30 0.29 0.29 0.30 0.31 0.33 0.34 0.33 0.33 0.32 0.32 0.32 0.33 0.34 0.35 0.36 0.37 0.38 0.37 0.37 0.39 0.39 0.41 0.41 0.41 0.41 0.42
0.51 0.51 0.51 0.52 0.53 0.52 0.51 0.51 0.51 0.51 0.52 0.52 0.52 0.50 0.49 0.48 0.46 0.46 0.44 0.45 0.46 0.47 0.48 0.48 0.47 0.45 0.45 0.44 0.43 0.42 0.42 0.42 0.42 0.42 0.42 0.41 0.42 0.43 0.44 0.44 0.44 0.44 0.41 0.37 0.36 0.34 0.34 0.33 0.32 0.32 0.32 0.32 0.32 0.32 0.31 0.31 0.31 0.30 0.30 0.30 0.30 0.31 0.32 0.34 0.34 0.33 0.33 0.33 0.33 0.33 0.34 0.35 0.36 0.36 0.37 0.38 0.39 0.39 0.39 0.40 0.41 0.40 0.41 0.41 0.42
0.49 0.49 0.49 0.50 0.50 0.50 0.49 0.48 0.48 0.48 0.47 0.47 0.46 0.46 0.45 0.45 0.45 0.43 0.42 0.41 0.39 0.38 0.38 0.40 0.42 0.42 0.42 0.42 0.41 0.41 0.41 0.41 0.41 0.41 0.41 0.41 0.42 0.42 0.43 0.40 0.38 0.38 0.38 0.38 0.36 0.35 0.33 0.32 0.31 0.31 0.32 0.31 0.32 0.32 0.31 0.31 0.31 0.30 0.29 0.30 0.30 0.31 0.33 0.33 0.33 0.34 0.34 0.34 0.34 0.34 0.35 0.36 0.37 0.38 0.39 0.39 0.39 0.39 0.40 0.42 0.42 0.43 0.42 0.42 0.43
0.45 0.44 0.44 0.45 0.48 0.49 0.48 0.47 0.46 0.45 0.44 0.44 0.44 0.44 0.43 0.42 0.42 0.42 0.42 0.41 0.39 0.37 0.37 0.38 0.40 0.42 0.43 0.42 0.41 0.40 0.39 0.40 0.40 0.41 0.41 0.42 0.42 0.42 0.38 0.37 0.36 0.36 0.36 0.36 0.35 0.35 0.35 0.34 0.33 0.32 0.32 0.32 0.32 0.32 0.32 0.32 0.32 0.31 0.31 0.31 0.31 0.32 0.32 0.33 0.34 0.34 0.35 0.35 0.35 0.36 0.36 0.37 0.38 0.39 0.40 0.41 0.41 0.41 0.42 0.42 0.42 0.42 0.42 0.42 0.42
0.45 0.45 0.44 0.44 0.44 0.45 0.46 0.46 0.46 0.45 0.43 0.42 0.42 0.41 0.41 0.42 0.43 0.43 0.42 0.40 0.38 0.37 0.36 0.36 0.38 0.39 0.41 0.41 0.41 0.40 0.40 0.39 0.39 0.40 0.41 0.41 0.42 0.41 0.39 0.37 0.36 0.36 0.35 0.35 0.34 0.33 0.32 0.31 0.31 0.31 0.31 0.32 0.32 0.33 0.33 0.33 0.33 0.32 0.32 0.33 0.34 0.33 0.33 0.34 0.35 0.35 0.35 0.35 0.35 0.36 0.36 0.37 0.38 0.40 0.40 0.39 0.40 0.41 0.42 0.42 0.42 0.42 0.42 0.42 0.42
0.44 0.44 0.44 0.44 0.44 0.44 0.43 0.44 0.44 0.44 0.43 0.43 0.43 0.42 0.41 0.41 0.42 0.42 0.41 0.39 0.37 0.36 0.35 0.36 0.37 0.37 0.37 0.38 0.42 0.40 0.40 0.40 0.40 0.39 0.38 0.37 0.36 0.36 0.35 0.35 0.34 0.32 0.31 0.31 0.30 0.29 0.29 0.30 0.31 0.31 0.32 0.32 0.32 0.33 0.33 0.34 0.35 0.34 0.34 0.34 0.35 0.35 0.35 0.35 0.36 0.36 0.37 0.37 0.36 0.37 0.38 0.38 0.40 0.41 0.41 0.40 0.40 0.41 0.41 0.41 0.41 0.41 0.41 0.42 0.42
0.42 0.42 0.42 0.42 0.42 0.42 0.42 0.41 0.42 0.42 0.42 0.42 0.42 0.41 0.41 0.41 0.42 0.43 0.42 0.39 0.37 0.37 0.37 0.37 0.36 0.37 0.38 0.39 0.39 0.40 0.38 0.36 0.35 0.33 0.33 0.33 0.34 0.34 0.33 0.32 0.31 0.31 0.31 0.31 0.31 0.32 0.32 0.31 0.32 0.32 0.32 0.32 0.32 0.33 0.34 0.34 0.35 0.35 0.35 0.34 0.34 0.34 0.34 0.36 0.36 0.37 0.37 0.37 0.37 0.38 0.39 0.40 0.41 0.42 0.41 0.40 0.40 0.41 0.41 0.41 0.41 0.41 0.40 0.39 0.39
0.42 0.42 0.42 0.41 0.41 0.40 0.40 0.40 0.40 0.39 0.39 0.39 0.39 0.39 0.38 0.39 0.39 0.40 0.38 0.36 0.35 0.35 0.36 0.35 0.35 0.36 0.37 0.38 0.37 0.38 0.35 0.34 0.33 0.32 0.31 0.32 0.32 0.33 0.33 0.32 0.31 0.31 0.31 0.31 0.32 0.31 0.31 0.30 0.31 0.30 0.30 0.31 0.31 0.32 0.33 0.34 0.34 0.35 0.35 0.35 0.34 0.34 0.35 0.36 0.37 0.38 0.37 0.38 0.38 0.39 0.40 0.40 0.41 0.41 0.41 0.41 0.41 0.41 0.40 0.39 0.38 0.38 0.38 0.38 0.39
0.42 0.42 0.41 0.40 0.40 0.39 0.39 0.39 0.39 0.39 0.39 0.39 0.39 0.37 0.36 0.37 0.38 0.38 0.37 0.36 0.35 0.34 0.34 0.34 0.34 0.35 0.37 0.38 0.38 0.37 0.35 0.34 0.34 0.32 0.32 0.32 0.32 0.32 0.32 0.32 0.32 0.32 0.32 0.32 0.31 0.31 0.30 0.30 0.31 0.31 0.31 0.31 0.32 0.32 0.32 0.33 0.34 0.34 0.34 0.35 0.35 0.35 0.36 0.37 0.38 0.38 0.39 0.39 0.40 0.40 0.41 0.41 0.41 0.40 0.39 0.40 0.41 0.40 0.40 0.39 0.38 0.37 0.37 0.37 0.37
0.42 0.42 0.41 0.40 0.40 0.39 0.38 0.37 0.38 0.38 0.38 0.38 0.37 0.36 0.36 0.37 0.37 0.37 0.37 0.36 0.34 0.34 0.33 0.33 0.33 0.35 0.37 0.38 0.38 0.38 0.37 0.36 0.35 0.33 0.33 0.33 0.33 0.33 0.33 0.33 0.34 0.33 0.32 0.32 0.32 0.32 0.32 0.32 0.31 0.31 0.31 0.31 0.31 0.32 0.33 0.34 0.35 0.35 0.35 0.36 0.36 0.36 0.36 0.37 0.38 0.40 0.40 0.40 0.41 0.42 0.42 0.42 0.42 0.41 0.41 0.41 0.40 0.39 0.38 0.37 0.36 0.36 0.35 0.35 0.35
0.42 0.41 0.41 0.40 0.39 0.38 0.37 0.37 0.36 0.37 0.37 0.36 0.36 0.36 0.36 0.37 0.37 0.37 0.36 0.36 0.35 0.34 0.33 0.32 0.32 0.34 0.35 0.37 0.37 0.38 0.37 0.35 0.34 0.33 0.33 0.33 0.33 0.33 0.33 0.33 0.33 0.33 0.33 0.34 0.34 0.34 0.33 0.31 0.31 0.31 0.31 0.31 0.32 0.32 0.33 0.34 0.35 0.36 0.36 0.36 0.37 0.38 0.38 0.39 0.40 0.40 0.41 0.41 0.42 0.42 0.42 0.42 0.41 0.41 0.40 0.40 0.39 0.38 0.36 0.36 0.35 0.33 0.33 0.32 0.32
0.41 0.41 0.41 0.40 0.40 0.39 0.38 0.37 0.36 0.36 0.36 0.36 0.36 0.36 0.36 0.37 0.36 0.36 0.35 0.35 0.34 0.34 0.33 0.33 0.33 0.34 0.33 0.34 0.35 0.36 0.35 0.34 0.33 0.33 0.33 0.33 0.33 0.33 0.33 0.34 0.34 0.34 0.34 0.34 0.33 0.33 0.32 0.31 0.30 0.31 0.32 0.32 0.32 0.33 0.33 0.34 0.36 0.37 0.37 0.37 0.38 0.39 0.39 0.39 0.39 0.40 0.41 0.41 0.41 0.41 0.41 0.41 0.41 0.40 0.41 0.41 0.40 0.37 0.35 0.34 0.32 0.31 0.30 0.30 0.31
0.41 0.40 0.40 0.40 0.41 0.40 0.38 0.38 0.37 0.37 0.37 0.37 0.37 0.37 0.36 0.36 0.34 0.34 0.35 0.34 0.34 0.33 0.34 0.34 0.33 0.34 0.34 0.34 0.33 0.33 0.34 0.34 0.34 0.33 0.33 0.33 0.33 0.34 0.34 0.35 0.35 0.34 0.34 0.33 0.32 0.32 0.31 0.31 0.30 0.29 0.29 0.29 0.30 0.31 0.32 0.34 0.35 0.36 0.39 0.39 0.39 0.38 0.40 0.40 0.41 0.42 0.42 0.41 0.41 0.40 0.40 0.40 0.39 0.39 0.40 0.39 0.37 0.35 0.33 0.32 0.31 0.30 0.30 0.29 0.28
0.41 0.41 0.40 0.39 0.39 0.40 0.39 0.39 0.39 0.39 0.39 0.38 0.37 0.37 0.35 0.34 0.33 0.34 0.34 0.35 0.35 0.35 0.35 0.35 0.34 0.33 0.33 0.34 0.34 0.34 0.34 0.34 0.34 0.33 0.33 0.33 0.34 0.34 0.34 0.34 0.33 0.33 0.32 0.32 0.31 0.31 0.30 0.30 0.29 0.27 0.26 0.26 0.27 0.28 0.31 0.32 0.34 0.35 0.37 0.39 0.41 0.41 0.42 0.43 0.43 0.43 0.42 0.42 0.41 0.41 0.40 0.40 0.39 0.39 0.37 0.34 0.33 0.31 0.30 0.29 0.28 0.27 0.26 0.25 0.25
0.41 0.41 0.41 0.41 0.40 0.40 0.39 0.40 0.40 0.40 0.39 0.38 0.38 0.37 0.36 0.35 0.34 0.34 0.36 0.36 0.36 0.37 0.36 0.36 0.34 0.33 0.32 0.32 0.33 0.34 0.34 0.34 0.34 0.34 0.33 0.33 0.34 0.34 0.34 0.34 0.34 0.33 0.33 0.32 0.32 0.31 0.29 0.27 0.26 0.25 0.25 0.24 0.24 0.26 0.27 0.30 0.32 0.33 0.35 0.37 0.39 0.41 0.43 0.43 0.44 0.44 0.43 0.43 0.42 0.41 0.40 0.38 0.35 0.33 0.31 0.29 0.27 0.26 0.25 0.25 0.24 0.23 0.23 0.23 0.22
0.42 0.41 0.41 0.42 0.42 0.41 0.41 0.40 0.39 0.39 0.39 0.38 0.38 0.37 0.37 0.36 0.36 0.35 0.36 0.36 0.37 0.38 0.37 0.37 0.36 0.35 0.34 0.33 0.32 0.33 0.34 0.34 0.34 0.34 0.34 0.34 0.35 0.35 0.34 0.34 0.34 0.33 0.32 0.32 0.31 0.30 0.27 0.24 0.23 0.23 0.22 0.22 0.21 0.21 0.22 0.25 0.28 0.31 0.32 0.34 0.35 0.37 0.39 0.40 0.41 0.40 0.40 0.39 0.37 0.35 0.32 0.30 0.29 0.27 0.26 0.25 0.24 0.23 0.21 0.20 0.20 0.19 0.18 0.18 0.19
0.40 0.40 0.40 0.40 0.40 0.41 0.41 0.41 0.40 0.40 0.40 0.40 0.40 0.39 0.38 0.37 0.37 0.37 0.37 0.36 0.36 0.36 0.37 0.37 0.37 0.36 0.35 0.34 0.34 0.33 0.33 0.34 0.34 0.34 0.34 0.35 0.36 0.35 0.35 0.34 0.33 0.33 0.32 0.31 0.30 0.27 0.24 0.22 0.21 0.20 0.19 0.18 0.18 0.18 0.18 0.19 0.21 0.24 0.26 0.28 0.30 0.30 0.31 0.31 0.31 0.31 0.30 0.29 0.28 0.27 0.26 0.25 0.23 0.22 0.21 0.20 0.19 0.19 0.17 0.16 0.15 0.16 0.16 0.17 0.18
0.38 0.38 0.38 0.39 0.40 0.41 0.43 0.43 0.42 0.42 0.42 0.42 0.41 0.40 0.40 0.39 0.38 0.38 0.37 0.36 0.35 0.35 0.35 0.37 0.37 0.37 0.36 0.35 0.34 0.34 0.34 0.34 0.34 0.34 0.35 0.34 0.34 0.34 0.33 0.33 0.33 0.32 0.31 0.30 0.29 0.26 0.23 0.22 0.20 0.19 0.18 0.17 0.17 0.16 0.16 0.16 0.16 0.17 0.19 0.21 0.22 0.23 0.24 0.24 0.24 0.24 0.24 0.23 0.21 0.20 0.18 0.17 0.16 0.16 0.17 0.17 0.17 0.16 0.15 0.15 0.16 0.16 0.16 0.16 0.17
0.38 0.38 0.37 0.37 0.39 0.40 0.41 0.42 0.42 0.42 0.42 0.41 0.40 0.39 0.39 0.40 0.40 0.39 0.38 0.37 0.36 0.35 0.35 0.36 0.37 0.37 0.37 0.36 0.35 0.35 0.35 0.35 0.35 0.34 0.34 0.34 0.34 0.33 0.33 0.32 0.32 0.31 0.31 0.29 0.27 0.25 0.23 0.21 0.20 0.18 0.16 0.15 0.15 0.14 0.14 0.14 0.15 0.15 0.15 0.16 0.16 0.16 0.17 0.17 0.17 0.17 0.17 0.16 0.15 0.15 0.14 0.13 0.13 0.14 0.15 0.15 0.15 0.14 0.14 0.15 0.16 0.16 0.16 0.16 0.17
Wind_Speed
16 16 16 16 16 16 17 17 16 16 16 16 16 16 17 17 17 17 17 17 17 16 17 17 16 15 15 15 15 15 14 14 14 13 13 13 12 12 11 11 10 10 10 10 10 9 9 9 10 10 10 10 10 11 11 11 11 11 11 11 11 10 10 10 9 9 9 10 10 10 10 10 11 11 11 11 11 11 11 10 10 10 10 10 10
15 16 16 17 17 17 16 17 17 16 16 16 16 16 17 17 17 17 17 17 18 17 17 17 16 15 15 15 15 14 14 14 14 13 13 13 12 11 11 11 10 10 10 10 10 9 9 9 10 10 10 10 10 10 10 11 11 11 11 11 11 11 11 11 10 10 10 10 10 10 10 11 11 11 12 12 12 12 12 12 12 12 12 12 12
14 15 16 17 17 17 17 17 18 18 16 16 17 17 17 17 17 17 17 17 18 17 17 17 16 15 15 15 15 14 14 14 14 14 13 13 12 11 11 11 10 11 11 11 10 10 10 10 10 10 9 9 9 10 10 10 11 11 11 11 12 12 13 12 11 11 11 10 10 11 11 12 12 12 13 13 13 12 12 13 13 13 13 14 14
12 14 15 16 17 18 17 18 19 19 17 17 17 17 17 18 18 17 17 18 17 17 17 17 16 16 16 15 14 14 14 14 14 14 14 13 13 12 12 11 11 11 11 11 11 10 10 10 10 10 9 9 9 10 10 10 10 11 11 12 12 13 13 13 12 12 11 11 11 11 12 12 12 12 13 13 13 13 13 14 14 14 15 15 15
11 12 14 15 16 18 18 19 20 19 18 17 17 17 17 18 18 18 18 19 17 16 16 16 17 17 16 15 15 14 14 14 14 13 13 13 13 13 13 12 11 11 11 11 11 10 10 10 10 10 10 9 9 9 10 10 11 11 12 12 12 12 12 13 13 12 12 12 11 11 12 12 12 12 13 13 13 14 14 14 15 15 16 16 17
11 12 13 14 15 17 18 19 19 19 18 18 17 17 17 18 18 18 19 19 18 17 16 16 16 17 17 16 15 15 14 14 13 13 12 13 13 13 13 13 11 10 10 10 10 10 10 10 10 10 10 9 9 9 10 10 11 12 13 12 12 12 12 12 12 13 13 12 12 12 12 12 12 12 13 14 14 14 15 15 15 16 16 17 17
10 11 12 14 14 16 17 18 18 18 18 18 17 17 17 18 18 19 20 19 18 18 17 17 16 16 16 16 16 15 14 14 13 13 13 13 13 13 13 12 11 11 10 10 10 10 10 10 10 10 9 9 9 9 9 9 10 11 12 12 12 12 12 13 13 13 13 13 13 13 13 13 13 13 13 14 15 15 15 16 16 17 17 18 18
10 10 11 12 13 15 17 18 18 18 19 18 17 17 18 18 19 19 19 19 19 18 18 17 16 16 15 16 15 14 14 14 14 13 13 13 13 13 12 12 12 11 10 10 9 10 9 9 9 9 9 9 9 9 9 9 8 9 10 11 12 12 13 13 13 13 13 13 14 14 14 14 14 14 14 15 16 16 17 17 18 18 19 19 20
9 9 10 11 12 14 16 17 17 18 18 18 17 18 18 18 19 19 19 19 19 18 18 17 17 16 16 15 15 14 13 14 13 13 13 13 13 12 12 12 12 11 11 10 9 9 9 9 9 10 9 9 9 9 10 10 9 9 9 10 11 12 13 14 14 14 14 14 15 15 15 15 16 16 16 16 17 18 18 18 19 20 20 21 21
8 8 10 11 12 13 14 15 17 17 17 17 18 18 18 18 18 19 19 19 19 18 18 18 17 17 16 16 15 14 14 14 13 13 13 13 12 12 12 12 12 11 11 10 10 9 9 9 9 10 10 10 10 10 10 10 10 10 10 10 10 11 12 13 14 14 15 16 16 16 16 17 17 18 18 19 20 20 19 20 21 21 21 22 22
6 8 10 11 12 13 13 15 16 17 17 17 18 19 19 17 17 18 19 19 18 18 18 18 18 17 17 16 16 15 14 14 13 13 13 13 12 12 12 11 11 11 11 10 10 10 10 9 9 10 10 10 10 10 10 10 11 11 11 11 12 12 12 12 13 14 15 16 17 17 18 19 19 19 20 20 21 21 21 22 22 22 22 22 22
4 6 8 10 12 13 13 15 16 16 16 17 19 19 18 17 17 18 18 18 18 18 18 17 18 18 17 17 16 16 15 15 14 14 13 13 13 12 11 11 11 11 11 11 10 10 10 10 10 10 10 10 11 11 11 11 12 12 12 12 13 13 14 15 15 15 16 16 17 17 18 19 19 20 21 21 22 22 23 23 23 23 23 24 24
3 4 5 8 11 12 13 14 15 15 16 18 19 19 17 17 17 18 18 18 18 18 17 17 18 18 17 17 17 16 16 15 15 14 13 13 13 12 12 11 11 11 11 11 11 10 10 10 10 10 10 10 11 11 11 12 12 13 13 14 14 15 16 16 17 17 18 18 18 18 18 18 19 20 20 21 21 22 23 23 24 24 25 25 26
1 2 3 5 8 11 12 14 15 15 16 18 18 18 17 17 17 17 17 18 18 18 17 17 18 18 17 17 17 17 16 16 15 15 14 13 13 12 12 11 11 11 11 11 11 11 11 11 10 10 10 11 11 11 12 12 13 13 14 15 15 16 17 17 18 18 19 19 20 20 20 20 20 20 20 20 21 22 23 24 25 26 26 27 28
2 2 3 4 7 9 11 13 15 15 16 17 17 17 16 17 17 16 17 17 18 18 18 18 18 18 17 17 17 17 16 16 16 15 14 14 13 13 12 12 12 12 11 11 11 11 11 11 11 12 12 12 13 13 13 13 14 14 15 16 16 17 17 18 19 19 19 20 20 20 20 20 21 21 22 22 22 23 24 25 25 26 27 28 29
2 2 3 4 5 7 10 12 13 15 15 16 16 16 16 16 16 16 16 17 17 18 18 18 18 18 18 17 17 17 16 16 16 16 15 15 14 14 13 13 13 12 12 12 12 12 13 13 13 13 14 14 15 15 15 15 16 16 16 17 17 18 18 18 19 19 19 20 20 20 21 21 22 23 23 24 25 25 25 26 27 28 29 30 30
3 2 3 4 5 6 9 10 12 15 16 15 15 15 15 16 16 16 16 16 16 17 17 18 18 17 17 17 17 17 16 16 16 16 16 17 17 16 16 15 15 14 14 13 13 14 14 15 15 15 16 16 17 16 17 17 17 17 18 18 18 18 19 19 19 19 20 20 21 22 22 22 23 24 24 25 26 26 27 27 28 29 30 31 32
3 3 3 4 5 6 8 9 11 13 15 15 16 16 15 15 15 15 16 16 16 16 17 17 17 17 17 17 16 16 16 16 16 16 16 17 18 18 18 18 17 16 16 16 15 16 16 16 16 17 17 18 17 17 17 17 18 18 18 18 18 19 19 19 20 20 21 22 22 23 24 24 25 26 26 27 27 28 29 29 30 30 31 33 34
3 3 3 4 5 6 7 8 10 11 13 15 16 17 17 16 15 15 15 15 16 16 16 17 17 16 16 16 17 17 17 16 16 16 16 16 17 18 18 18 18 18 18 18 17 18 18 18 18 18 18 17 17 17 17 17 17 17 17 18 18 18 19 20 21 21 22 23 24 24 25 26 27 27 28 29 29 30 30 31 31 32 33 34 35
3 3 3 3 4 5 7 8 10 11 13 14 15 16 16 16 16 16 16 16 16 17 16 16 16 15 15 16 16 16 16 17 16 16 16 16 16 17 18 18 18 18 18 18 18 18 19 19 18 18 17 17 17 16 16 17 17 17 18 18 19 20 21 22 23 23 24 24 25 26 26 27 28 28 29 30 30 31 31 32 33 34 35 36 37
4 3 2 3 3 4 5 7 8 9 12 14 15 15 15 15 15 16 15 15 16 16 15 15 15 15 15 15 15 14 15 16 16 16 16 17 17 17 18 18 17 17 17 17 18 18 18 17 17 16 16 16 16 16 17 17 18 19 20 20 21 22 23 24 25 25 26 26 26 27 28 29 29 30 30 31 31 32 33 33 34 35 36 37 38
5 4 3 3 3 3 4 5 6 7 9 11 12 13 13 13 13 14 15 15 14 14 14 14 14 14 14 14 14 13 13 14 15 15 16 16 16 17 17 17 17 17 16 16 17 17 16 16 16 15 16 16 17 17 18 18 19 20 21 22 23 24 25 25 26 27 27 27 28 28 29 30 31 31 32 32 33 33 34 35 35 36 37 38 39
5 5 4 4 4 4 4 5 6 7 8 9 10 10 11 12 13 13 14 14 13 13 13 14 13 13 13 13 12 12 13 13 13 14 14 15 15 15 16 16 15 15 15 15 15 15 15 15 16 16 16 17 18 19 19 20 21 22 23 24 24 25 25 26 27 27 28 29 29 30 30 31 31 32 33 33 34 35 35 36 37 37 38 39 39
6 6 5 5 5 5 5 5 6 7 8 9 10 10 10 11 12 13 13 13 13 13 13 13 13 12 12 12 12 12 11 11 11 11 12 13 13 13 13 13 13 13 14 14 14 15 16 16 17 18 18 19 20 21 21 22 23 24 24 24 25 25 26 26 27 28 28 29 30 30 31 32 32 33 34 35 35 36 36 37 38 38 39 39 40
6 6 6 6 7 7 7 6 6 7 8 9 10 10 11 11 11 12 12 12 13 12 12 11 11 11 11 11 11 11 11 11 11 10 10 11 11 12 12 12 13 13 14 15 16 17 17 18 19 20 20 21 22 22 22 23 24 24 24 25 25 25 26 26 27 27 28 29 30 31 32 33 33 34 35 36 36 37 37 38 39 39 40 40 40
7 6 6 7 8 8 8 8 8 8 8 8 9 10 11 11 11 11 12 12 12 11 11 11 11 11 11 11 11 11 11 11 11 11 12 12 13 13 14 14 15 16 16 17 18 19 19 20 21 21 22 22 23 23 23 23 23 24 24 25 25 26 26 27 27 28 29 30 31 32 33 34 34 35 35 36 37 37 38 39 39 40 41 41 41
8 8 8 8 9 9 9 9 9 9 9 9 9 10 10 11 11 11 12 12 12 12 12 12 12 12 12 12 12 12 12 13 13 13 14 15 15 16 16 17 17 18 19 19 20 20 21 21 21 21 22 22 22 22 22 23 23 23 24 25 26 26 27 28 28 29 30 31 32 33 34 34 35 35 36 37 37 38 38 39 40 40 41 41 40
10 9 9 10 10 10 10 10 10 10 10 10 10 11 11 11 12 12 12 13 14 14 14 14 14 14 13 13 13 14 14 14 15 15 16 17 18 18 18 19 19 20 20 21 21 21 21 21 21 21 21 21 21 21 22 22 23 23 24 25 26 27 28 29 29 30 31 32 33 34 35 35 36 36 37 37 38 38 39 39 40 40 40 40 39
10 11 11 11 12 12 11 11 11 11 11 11 11 11 12 12 12 13 13 14 14 15 15 15 14 14 14 14 15 15 15 16 16 17 18 18 19 19 20 20 21 21 21 21 21 21 21 20 20 20 20 20 21 21 22 22 23 24 25 26 27 28 29 29 30 31 32 33 34 35 35 35 36 37 37 37 38 38 39 39 40 40 40 39 39
10 10 11 12 12 12 12 12 12 12 12 12 12 13 13 13 13 13 13 13 13 14 14 15 15 15 16 16 16 16 17 17 18 19 19 19 19 20 20 20 21 21 20 20 20 20 20 19 19 20 20 20 21 22 22 23 24 25 26 27 28 29 29 30 31 32 33 33 34 35 35 36 36 36 36 36 37 38 39 39 39 39 39 38 37
9 9 10 11 12 12 12 12 12 12 12 13 13 13 13 14 14 14 14 14 14 14 14 15 15 16 16 17 17 17 18 18 19 20 20 20 19 19 19 19 19 19 19 19 19 19 19 19 19 20 20 21 22 22 23 24 26 27 28 28 29 29 30 31 31 32 33 33 34 35 35 35 35 36 36 36 37 38 38 38 37 37 36 35 34
9 9 10 10 11 12 12 13 12 12 12 12 12 13 13 13 14 13 13 13 13 13 14 14 15 15 16 17 17 18 18 19 19 19 19 18 18 18 18 18 18 18 18 18 18 18 19 19 20 20 21 21 22 23 24 25 26 27 28 28 29 30 30 31 32 32 33 33 34 34 35 35 35 35 35 36 36 36 36 35 35 34 33 31 30
11 11 11 11 11 12 13 13 13 13 13 13 13 13 13 13 13 13 13 13 13 13 14 14 15 15 16 17 17 18 18 18 17 17 17 16 17 17 17 17 17 17 18 18 18 19 19 20 20 20 21 22 22 23 24 25 25 26 27 28 29 30 31 31 32 32 33 33 34 34 34 34 34 34 34 34 34 33 33 32 31 31 30 29 28
12 12 12 12 13 13 13 14 15 15 15 15 15 15 14 14 14 14 14 14 14 14 14 15 15 16 16 17 17 16 16 16 16 15 16 16 16 17 17 16 16 17 18 18 18 19 19 19 20 20 21 21 22 23 23 24 25 27 27 28 29 29 30 31 31 32 32 33 33 33 33 33 33 33 32 32 31 30 30 29 28 28 27 27 26
13 14 14 14 14 14 14 14 15 15 15 16 16 16 16 15 15 15 15 15 15 15 15 16 16 16 17 17 17 16 16 16 16 16 16 17 17 17 17 18 18 18 18 19 19 19 19 19 20 20 21 21 22 23 24 25 26 27 28 28 28 29 29 30 30 31 31 32 32 32 32 31 31 31 30 29 28 27 26 25 25 25 24 24 24
14 14 15 14 14 14 14 15 15 15 15 16 16 16 16 16 16 16 16 16 16 16 16 17 18 18 18 17 17 17 17 17 17 17 17 18 18 18 19 19 18 18 19 19 19 19 19 19 20 20 21 22 22 23 24 25 26 27 27 28 27 28 28 29 29 30 30 30 30 30 29 29 28 27 26 25 24 23 23 22 22 22 22 22 22
15 15 15 15 15 15 15 15 15 16 16 16 16 17 17 18 18 18 17 17 17 17 17 18 18 19 18 18 18 18 17 17 17 18 18 18 19 19 19 19 19 19 19 19 19 19 19 19 20 21 21 22 23 23 24 25 25 26 27 27 27 27 28 28 28 28 28 28 28 27 26 26 25 24 23 22 21 21 20 20 19 19 19 18 17
16 16 16 16 16 16 16 17 17 17 17 17 18 18 18 19 19 19 19 18 18 17 18 18 19 19 19 19 19 19 18 18 18 19 19 19 19 19 19 19 18 18 18 18 18 18 19 19 20 20 21 22 22 23 24 24 25 26 26 26 26 26 27 27 27 26 26 26 25 24 23 23 22 21 20 19 19 18 17 17 16 16 16 16 15
16 16 16 17 17 17 17 18 18 18 18 18 18 19 19 19 19 19 19 18 18 18 18 19 19 20 19 19 19 19 19 19 19 19 19 18 18 18 18 18 17 17 17 17 17 18 18 18 19 20 20 21 22 23 23 24 25 25 25 25 25 25 25 25 25 24 24 23 22 22 21 20 19 18 17 17 16 15 15 15 15 15 15 15 15
17 17 17 18 18 18 18 19 19 19 19 19 19 19 19 19 19 19 19 18 18 18 19 19 20 20 20 19 19 19 19 19 19 18 18 18 17 17 17 16 16 16 16 16 16 16 17 17 18 19 20 20 21 22 23 24 24 24 24 24 24 24 24 23 23 22 21 21 20 19 18 17 17 16 15 15 14 14 14 14 15 15 15 15 15
17 17 17 18 18 18 19 19 20 20 20 20 20 20 20 19 19 19 19 19 19 19 19 19 20 20 19 19 18 19 19 19 18 18 17 17 16 16 16 15 15 15 15 15 15 16 16 17 18 18 19 20 21 21 22 23 23 23 23 23 23 23 22 21 21 20 19 19 18 17 16 16 15 15 14 14 14 14 14 14 15 15 15 15 15
18 18 18 18 18 18 19 20 20 21 20 20 20 20 20 20 20 20 20 20 20 20 20 20 20 20 19 19 19 19 19 19 18 18 17 17 16 16 15 15 15 15 15 15 15 16 16 17 18 18 19 19 20 21 21 22 22 22 21 21 21 21 20 19 19 18 17 17 16 15 15 14 14 14 14 14 14 14 13 14 14 14 14 14 14
18 18 18 18 18 18 19 19 20 20 20 20 19 19 20 20 21 21 21 21 20 20 20 20 20 20 20 20 19 19 19 19 18 18 17 17 16 16 15 15 15 15 15 15 15 16 16 17 17 18 18 19 19 20 20 21 21 21 20 20 20 19 18 17 17 16 15 15 15 14 14 13 13 13 13 13 13 13 13 14 14 13 13 13 13
16 16 17 17 18 18 18 18 18 19 19 19 19 19 20 20 21 21 21 20 20 20 20 20 20 20 20 20 20 19 19 19 18 17 17 17 16 16 15 15 15 15 15 15 15 15 15 16 16 17 17 18 18 18 19 19 19 19 19 18 18 17 16 15 15 14 14 13 13 13 12 12 12 12 13 13 14 14 13 13 13 13 13 13 14
14 14 15 16 17 17 17 17 17 18 18 19 19 19 19 20 20 20 20 20 20 20 20 20 20 19 19 19 19 19 19 18 18 17 17 17 16 16 15 15 15 15 15 15 15 15 15 15 16 16 17 17 17 17 18 18 18 17 17 16 15 14 14 14 13 13 12 12 11 11 11 12 12 12 13 13 13 13 13 13 13 13 13 13 14
12 12 13 14 14 15 16 16 17 17 17 18 19 19 19 19 20 20 20 21 21 20 20 20 19 19 19 18 18 18 18 18 18 17 17 16 16 16 15 15 14 14 14 14 14 15 15 15 15 15 16 16 16 16 16 16 16 15 15 14 14 13 12 12 12 11 11 11 11 11 11 12 12 12 13 13 13 13 13 13 13 13 13 13 14
10 10 11 11 12 12 13 14 15 16 16 17 17 18 19 19 19 19 20 20 20 20 20 20 20 19 19 19 18 18 18 18 18 17 16 16 16 15 15 15 14 14 14 14 14 14 14 14 14 14 14 15 15 15 15 15 14 14 13 13 12 11 11 10 10 10 11 11 11 10 11 11 12 12 12 12 12 12 12 13 13 13 13 13 13
8 9 10 10 10 11 11 11 12 13 14 15 16 17 17 18 18 18 19 19 20 20 20 20 20 19 19 18 18 18 17 17 17 17 16 16 15 15 15 15 14 14 14 14 14 14 13 13 14 13 14 14 14 14 14 14 13 13 12 11 11 11 10 10 9 9 9 9 10 10 10 11 11 12 12 12 12 12 12 12 12 12 12 12 12
8 9 9 10 10 10 11 11 11 12 12 13 14 15 16 16 17 17 18 18 19 19 20 20 19 19 18 18 17 16 16 16 16 16 16 16 15 15 15 15 14 14 14 14 13 13 13 13 13 13 13 13 13 13 12 12 12 12 11 10 10 10 10 9 9 9 9 9 10 10 10 11 11 11 12 11 11 11 11 11 11 11 11 11 11
9 9 9 10 10 11 12 12 12 13 13 13 14 15 15 16 16 17 17 17 17 18 18 19 19 18 18 17 16 16 15 15 15 15 15 15 15 15 15 15 14 14 14 13 13 13 12 12 12 12 12 12 11 11 11 11 11 10 10 10 9 9 9 9 9 9 10 10 10 10 11 11 11 11 11 11 11 11 11 11 11 11 11 11 11
10 10 10 10 10 11 12 12 13 14 15 15 15 16 16 16 16 16 16 16 15 15 16 17 18 18 18 17 16 16 15 15 15 15 15 15 15 15 14 14 14 14 13 13 13 13 12 12 12 11 11 11 10 10 10 9 9 9 9 9 9 9 9 9 9 9 9 9 9 9 10 10 10 10 10 10 10 10 10 10 10 11 11 11 11
Wind_Direction
225 228 229 229 229 228 225 222 219 216 214 213 213 211 209 209 208 205 202 202 200 197 197 197 198 200 201 201 199 198 198 197 196 197 198 199 201 202 204 207 210 213 213 215 218 219 218 218 218 219 219 221 222 223 222 222 224 228 228 226 228 232 233 235 239 236 233 238 244 248 246 242 243 243 242 243 243 244 246 246 246 245 245 246 247
228 230 230 231 229 226 225 220 214 211 211 211 211 209 208 208 207 204 202 199 195 193 194 195 197 198 197 196 195 195 196 196 196 198 198 200 202 203 205 208 211 212 213 215 217 219 219 218 219 220 222 222 222 223 223 223 226 228 227 226 229 232 235 237 237 235 236 239 242 247 248 246 246 245 245 246 246 246 248 248 248 248 248 248 249
231 231 230 231 229 225 223 217 210 208 210 210 209 208 208 207 205 204 202 197 194 193 195 196 198 197 195 194 194 194 195 196 199 201 201 203 204 206 209 210 211 211 211 214 217 220 221 220 221 223 224 224 223 224 226 227 231 232 230 231 233 233 235 239 240 237 238 242 243 245 247 248 249 247 246 247 247 249 251 252 252 253 252 252 251
232 231 230 230 227 221 219 215 210 209 210 210 208 207 207 204 202 201 198 195 195 196 196 199 199 197 195 194 194 195 196 198 201 204 204 204 206 209 211 211 211 212 211 214 218 221 222 222 223 223 223 224 224 227 230 233 237 239 239 239 239 238 236 238 241 241 241 244 247 247 247 249 250 249 247 248 249 251 255 256 257 257 256 255 254
237 235 234 231 225 219 216 212 208 208 209 208 206 205 204 201 199 197 195 196 199 198 198 199 198 195 195 195 197 199 200 201 204 205 205 205 207 209 209 207 208 210 210 213 218 221 223 222 221 220 222 227 230 233 236 240 245 246 245 244 243 242 239 239 241 242 242 244 246 247 246 248 251 250 249 249 251 253 257 259 259 260 260 258 257
243 241 238 232 226 222 216 210 206 206 207 206 204 202 201 199 198 197 197 198 199 198 196 195 195 195 197 199 200 202 202 202 202 201 202 202 203 204 204 204 205 207 208 213 219 222 222 221 221 224 229 234 236 237 240 247 251 250 249 247 245 243 242 242 242 242 244 246 247 247 247 248 251 251 249 250 252 255 258 260 261 262 262 261 260
247 243 237 231 226 221 215 209 205 204 204 203 201 201 200 200 200 199 198 198 198 197 196 195 196 197 198 199 200 200 200 201 200 199 199 200 202 203 203 203 205 207 210 215 218 219 219 221 225 230 234 236 236 237 243 252 256 254 251 249 246 245 243 243 244 244 245 247 248 249 250 251 253 254 253 252 254 258 260 261 262 263 264 264 262
248 242 234 226 221 215 210 207 205 204 203 203 202 201 201 201 200 199 198 197 197 197 197 197 199 199 197 197 198 199 200 201 201 201 202 204 204 204 203 203 204 207 212 215 217 218 220 223 228 233 236 238 240 243 247 253 258 258 255 250 248 249 248 246 246 247 248 249 250 252 254 254 254 256 257 255 256 259 260 259 260 262 264 265 265
252 242 228 219 214 210 207 207 206 205 204 203 202 200 199 199 199 197 197 197 197 197 198 199 199 198 197 196 197 199 201 202 203 203 204 205 204 203 203 203 204 208 212 215 218 221 224 228 232 235 239 243 248 251 253 254 256 257 255 252 251 251 249 247 248 250 253 254 254 255 257 257 256 256 257 256 258 261 262 261 261 263 264 265 266
253 238 223 216 211 207 207 207 206 205 205 202 199 196 194 195 195 195 195 196 197 197 198 198 198 198 198 197 198 200 202 204 205 204 203 203 203 203 204 205 206 210 212 213 217 222 227 232 235 237 241 246 252 255 256 256 256 256 254 254 256 255 250 249 250 254 258 258 258 257 258 259 259 258 257 259 261 264 265 264 263 265 264 264 266
250 231 220 216 210 206 207 207 204 203 203 199 195 192 192 194 195 194 194 196 198 199 199 199 200 200 200 199 200 202 204 206 207 204 203 204 204 205 206 206 208 211 212 214 219 224 229 234 239 241 245 248 252 254 255 255 256 258 258 259 261 262 260 257 257 258 260 261 262 262 263 264 264 263 263 264 264 265 266 267 267 266 265 264 266
243 225 220 218 212 208 207 204 200 200 199 195 192 192 194 196 197 197 198 199 200 200 200 200 201 201 201 200 202 204 206 209 208 205 205 206 206 208 208 208 210 214 216 219 224 229 234 239 243 246 248 250 253 255 256 257 258 260 262 263 264 265 266 266 266 265 264 264 265 266 268 269 269 269 269 269 269 268 268 269 268 267 267 266 267
230 222 219 216 210 206 204 200 197 198 196 192 192 194 196 197 199 199 201 202 202 201 200 200 200 200 201 200 202 204 207 210 210 207 207 208 209 211 212 212 215 219 222 226 230 234 239 244 247 250 253 255 256 257 258 260 261 262 264 266 267 267 268 269 270 270 269 269 269 269 270 271 272 273 272 272 272 271 271 271 270 269 269 268 269
246 227 215 209 201 199 199 197 196 196 195 193 194 196 197 199 200 202 204 205 204 202 201 200 198 199 200 200 202 205 207 210 211 209 210 212 213 215 218 219 221 224 227 231 235 239 243 248 251 253 257 260 261 261 262 264 265 266 268 270 271 271 270 270 271 271 271 271 272 272 272 272 273 274 274 273 273 273 274 274 273 272 272 272 273
300 245 215 206 199 196 195 194 193 194 194 193 194 196 198 198 199 202 204 204 203 202 201 200 199 200 201 202 204 206 209 213 213 212 213 214 217 221 224 225 228 230 233 237 241 245 248 252 255 256 259 261 263 264 265 267 268 270 272 273 274 274 274 274 273 273 273 272 272 273 273 274 274 275 276 276 276 276 277 277 276 275 276 276 276
315 268 227 209 202 198 195 194 195 194 193 193 195 197 197 196 197 199 199 200 201 200 200 200 200 200 202 204 207 208 212 216 217 217 217 218 221 226 229 232 236 238 239 243 247 250 253 255 257 259 261 263 265 266 267 268 270 271 273 274 275 275 275 275 275 274 274 273 273 274 275 276 276 277 278 278 278 279 280 280 280 279 278 277 277
322 282 238 218 210 204 199 198 197 194 193 194 195 193 191 191 194 196 195 196 197 197 198 199 200 201 204 208 211 213 216 220 223 223 224 224 226 230 234 237 241 242 242 245 250 254 257 259 259 261 264 266 268 269 270 270 271 272 273 274 275 276 276 276 275 275 275 274 275 276 276 277 278 279 280 280 280 281 281 282 282 281 280 279 279
316 291 258 233 221 213 206 201 200 198 197 198 197 194 191 191 194 196 195 194 196 197 198 199 200 203 207 211 215 219 222 226 228 230 231 231 232 234 235 237 240 242 245 250 254 257 260 261 262 264 266 267 270 272 272 272 273 274 275 276 277 277 276 276 276 276 276 276 276 277 278 278 279 280 280 281 281 282 282 282 283 283 282 282 282
305 287 270 245 227 221 214 208 206 205 204 203 202 201 201 201 200 201 200 197 197 198 199 201 204 209 214 216 219 223 226 229 232 234 236 237 239 240 240 239 241 244 248 252 257 260 262 264 265 266 266 267 269 271 272 272 273 275 277 278 279 279 278 279 279 278 278 278 278 278 279 280 280 281 281 281 282 282 282 282 283 283 283 284 285
291 281 265 242 229 228 223 217 215 214 211 207 203 203 207 209 208 208 207 204 204 205 207 211 213 215 219 222 223 225 228 231 235 238 239 240 242 243 243 244 245 248 250 253 257 260 263 264 264 264 265 266 269 270 272 273 274 276 278 279 280 281 281 281 281 281 280 280 280 281 281 282 282 282 283 283 284 284 284 284 284 284 284 285 285
274 269 251 228 222 225 222 219 218 215 211 207 205 206 210 209 207 208 208 208 208 209 211 214 214 214 218 221 221 225 231 235 238 241 242 244 245 245 245 246 248 249 251 253 256 258 259 259 260 263 265 267 269 271 273 275 276 278 279 280 282 283 283 283 283 282 282 282 282 283 284 284 285 284 285 285 285 286 286 286 286 286 285 285 285
264 257 243 230 224 215 207 205 204 200 198 198 199 203 207 207 207 208 209 208 208 208 208 210 210 210 213 216 219 225 232 237 241 243 245 246 247 246 247 248 249 250 250 252 254 256 256 257 260 264 266 268 270 272 275 277 279 281 282 283 284 285 284 284 284 283 283 284 285 285 286 286 286 285 285 285 286 286 287 287 287 287 287 286 286
258 251 244 242 240 230 214 206 201 195 192 192 193 196 202 206 207 207 207 206 206 207 207 208 209 210 214 219 226 230 233 237 240 244 245 246 246 246 246 247 248 248 249 251 253 255 257 260 263 266 268 271 273 275 278 280 282 283 284 285 286 286 286 285 285 285 285 286 287 287 287 287 287 287 286 286 286 287 288 288 288 288 288 288 287
257 251 245 241 241 238 230 220 210 203 201 204 206 205 205 206 206 206 208 209 210 211 212 214 215 217 220 224 226 227 230 235 240 243 244 243 243 244 244 245 247 249 252 255 257 259 263 266 268 270 272 274 276 278 280 282 283 284 286 287 287 287 287 288 288 288 288 289 289 289 289 289 288 288 288 287 287 287 288 289 289 289 289 289 288
257 254 247 240 238 234 227 221 215 209 209 212 213 213 211 210 210 212 214 214 213 213 214 216 217 218 220 222 223 225 231 237 241 242 242 241 242 243 245 249 254 257 260 263 265 267 268 270 271 272 274 275 276 278 280 282 284 286 288 289 289 289 289 290 290 291 291 291 291 291 291 290 290 289 289 288 288 288 288 289 289 290 289 289 289
256 255 249 241 238 232 224 222 224 223 219 217 215 217 217 215 213 214 215 213 211 210 212 215 218 221 225 229 231 235 240 243 244 245 246 246 247 250 253 258 262 265 267 270 271 271 272 272 273 274 275 276 277 278 280 283 285 287 289 289 290 291 292 293 293 293 294 293 293 293 292 292 292 291 291 290 289 289 289 289 289 289 289 289 289
250 250 246 241 239 236 231 229 229 229 226 223 219 219 221 220 219 220 221 220 218 218 219 221 223 227 231 235 238 240 244 247 249 251 253 255 256 259 262 265 267 269 271 272 273 274 274 275 275 275 275 276 277 278 280 282 285 287 289 290 291 293 293 294 294 294 294 295 295 295 295 294 294 294 293 292 292 292 291 291 291 290 289 289 288
245 245 244 241 240 239 236 234 233 233 234 234 230 227 226 225 225 226 228 228 228 226 226 226 228 231 234 238 241 245 248 252 255 257 259 261 262 264 265 267 269 271 272 272 273 273 274 274 275 275 276 277 278 279 281 283 285 287 289 291 292 293 293 293 294 295 295 296 296 297 296 296 296 295 294 294 294 293 293 293 293 292 291 290 289
248 246 246 244 242 240 239 237 237 236 237 238 237 236 234 232 230 229 230 231 232 232 232 232 234 237 240 243 247 250 253 257 259 261 263 264 265 266 267 268 269 270 271 271 271 272 273 274 275 276 277 278 279 280 282 284 286 287 289 290 291 292 293 294 295 296 297 297 298 298 298 297 296 296 296 296 296 295 295 295 294 293 293 292 290
253 249 247 245 243 241 241 241 241 240 239 238 239 239 240 239 237 234 232 234 237 238 239 240 241 244 247 250 253 255 257 260 263 264 265 266 266 267 267 268 269 269 270 270 271 272 273 273 274 276 276 277 279 281 283 285 287 289 290 291 292 293 294 295 296 297 298 298 299 299 299 298 298 297 298 298 298 297 296 295 294 293 293 292 290
253 249 245 241 239 237 237 238 240 240 240 239 239 238 239 240 240 239 240 242 245 247 247 248 250 252 254 256 258 260 261 262 264 265 266 266 266 265 266 267 268 269 270 270 271 271 271 272 274 276 277 279 281 283 286 288 289 290 291 292 294 295 296 297 298 299 300 301 301 301 301 300 300 300 300 300 299 298 296 295 294 293 292 291 290
252 250 246 242 238 236 234 234 235 235 236 237 237 237 236 236 236 239 242 246 249 252 253 253 255 256 258 259 261 262 264 265 266 266 266 265 263 263 265 266 268 268 268 269 269 270 271 273 276 278 281 283 284 286 288 289 290 291 293 294 295 297 298 299 300 301 303 303 303 303 303 303 302 302 302 301 300 298 297 296 295 294 293 292 291
254 253 250 246 243 242 240 239 239 239 238 239 240 241 241 241 241 242 246 249 253 257 259 260 260 261 262 263 263 265 266 268 268 266 263 261 260 260 262 264 265 265 267 268 269 271 274 278 280 282 284 285 286 287 289 290 292 294 295 296 297 299 301 302 303 304 304 304 304 304 305 305 304 304 303 302 300 298 297 296 295 293 293 292 291
254 254 252 249 247 245 244 244 244 243 243 242 242 242 243 244 245 246 249 252 256 259 261 262 263 263 264 265 265 266 266 266 265 264 261 259 258 259 260 263 266 268 270 272 274 276 279 281 283 284 285 286 288 289 291 292 294 297 299 300 300 302 303 303 304 304 305 305 305 305 306 306 305 304 303 302 300 299 298 296 295 294 294 294 294
256 255 255 253 250 248 246 245 245 246 247 247 245 245 244 244 244 246 247 250 253 256 258 259 261 262 263 263 263 263 263 263 264 265 264 263 263 263 265 267 270 273 275 277 278 279 281 282 284 285 286 288 290 292 294 296 298 300 302 302 303 304 304 304 304 305 306 306 306 306 306 306 305 305 303 302 301 301 300 299 299 298 298 297 296
258 258 256 255 252 251 250 249 249 249 249 249 249 249 249 248 247 248 249 251 254 257 258 259 260 261 262 262 263 262 262 263 265 266 267 267 268 268 268 269 271 273 276 277 278 279 281 282 284 286 289 291 293 295 297 299 301 303 304 304 304 305 305 305 305 306 307 307 307 306 306 306 306 306 305 304 304 304 304 304 303 302 301 300 299
259 258 257 256 255 253 252 252 252 252 252 251 251 251 252 251 250 250 252 254 256 257 258 259 260 260 260 260 262 262 263 265 266 268 269 270 270 270 269 270 272 273 274 276 277 279 281 283 286 289 292 294 296 297 299 300 302 303 304 304 304 305 305 306 307 308 308 308 308 308 308 308 308 308 308 308 308 307 307 307 306 306 305 305 305
257 257 257 257 257 256 255 254 254 253 253 252 252 254 254 253 251 251 253 256 257 258 258 259 259 259 259 259 259 260 262 265 268 270 271 271 271 271 271 271 272 272 274 276 278 280 283 285 288 290 293 295 297 298 300 301 302 303 305 305 305 305 306 307 308 308 308 308 309 309 310 311 311 311 311 311 311 310 309 310 311 312 313 312 311
260 260 259 258 258 257 257 256 256 256 255 255 255 256 256 255 253 253 255 257 259 259 260 261 261 261 260 259 258 259 262 266 269 270 270 270 271 271 271 271 272 273 275 278 280 282 285 287 290 292 295 297 299 300 301 302 302 303 305 306 307 307 307 307 307 307 307 308 309 310 311 312 312 312 313 313 312 312 313 314 316 316 315 313 311
264 264 263 261 261 260 259 258 258 258 259 259 260 260 259 258 256 256 258 259 260 261 263 264 265 264 262 260 260 261 263 266 268 268 268 269 270 271 271 271 272 273 275 278 280 283 287 290 293 295 297 299 301 303 304 304 304 305 306 307 307 307 307 306 305 305 305 307 309 311 311 310 311 311 312 311 312 314 316 317 318 318 316 314 311
264 264 262 262 262 262 262 262 261 260 260 261 262 262 261 260 258 259 260 262 263 264 266 268 268 267 264 262 263 264 265 266 267 266 267 268 268 268 268 269 270 272 274 277 281 285 289 293 296 299 300 301 303 306 307 307 307 307 307 307 307 307 306 305 305 304 305 308 310 310 308 308 309 309 309 309 311 314 317 319 320 319 318 316 314
264 263 262 260 261 262 263 263 262 261 261 262 261 261 260 259 258 259 261 263 264 266 268 269 268 266 264 264 264 265 266 267 266 265 265 266 266 267 267 268 270 272 275 278 282 286 290 295 299 301 303 305 306 307 309 309 309 308 307 306 306 306 306 306 306 306 307 309 309 307 306 307 307 308 308 309 312 315 317 319 320 321 320 319 318
266 265 262 262 262 263 265 265 263 262 261 261 259 259 259 259 259 260 262 263 264 267 269 268 266 264 263 263 263 264 265 265 263 262 263 264 264 265 266 267 270 273 276 280 283 287 291 296 299 303 305 308 309 310 311 311 311 310 308 306 305 306 307 307 307 307 309 309 307 306 305 306 308 310 311 312 314 315 316 317 319 320 322 322 321
269 267 265 263 263 264 266 266 263 261 261 260 259 259 260 261 261 261 261 262 263 266 267 267 265 264 264 263 262 262 263 262 260 260 261 262 262 263 264 266 269 273 277 280 284 288 292 296 299 303 306 309 311 312 313 313 313 312 310 308 306 307 309 309 307 307 308 307 306 306 307 309 312 315 316 315 314 313 313 315 318 320 321 322 322
273 271 269 267 265 265 265 264 262 260 261 261 261 261 263 264 263 261 260 261 263 264 266 267 266 265 264 262 261 261 260 260 258 258 259 260 260 261 263 265 268 272 276 280 284 288 291 295 298 301 305 308 311 313 314 315 316 317 316 313 311 310 310 309 309 309 309 308 307 308 311 313 315 317 318 317 314 312 312 314 317 318 320 321 321
279 278 276 273 270 268 267 265 263 263 262 262 262 263 265 266 265 261 260 261 263 263 264 265 266 265 263 261 261 260 259 257 256 257 258 258 258 259 261 264 267 271 276 279 283 287 290 294 297 300 303 306 310 313 315 317 318 320 320 320 318 314 312 312 312 313 312 311 310 312 314 316 316 318 320 321 319 317 315 315 315 317 318 318 318
289 286 284 281 278 276 272 269 266 265 265 265 265 265 265 266 265 263 261 263 264 263 263 264 266 265 263 260 259 258 257 256 255 255 256 256 256 257 259 262 265 270 274 278 281 285 289 292 295 298 301 304 308 312 315 318 320 321 322 323 323 321 318 316 315 314 314 314 314 316 318 319 319 320 322 323 323 322 320 318 317 318 318 317 317
304 297 293 290 288 285 281 276 272 270 269 269 269 268 267 267 267 266 265 265 265 264 263 264 265 265 263 260 258 256 255 255 254 253 254 254 254 255 257 260 264 268 273 276 279 282 287 290 293 296 299 302 306 310 313 317 319 321 322 324 325 325 324 322 320 318 317 317 318 319 320 320 320 321 322 323 324 325 325 323 322 323 323 324 325
320 311 302 296 292 290 288 284 280 277 275 274 273 271 270 270 270 270 270 270 267 263 262 263 263 262 261 259 257 255 254 253 252 251 251 252 252 253 255 258 262 266 269 273 276 280 285 288 292 295 298 301 305 308 312 316 319 321 322 323 324 325 326 325 324 322 321 321 321 321 322 322 321 321 322 324 326 328 329 330 330 331 331 332 332
328 323 314 303 296 292 289 286 284 282 281 279 278 276 275 273 273 272 272 273 270 265 261 260 261 260 258 255 254 253 253 252 250 249 249 250 251 252 253 256 259 263 266 270 274 278 283 287 291 294 297 301 304 308 312 315 318 321 323 323 323 324 324 325 324 323 322 322 322 324 325 325 324 324 324 326 328 329 331 333 335 335 335 334 332
328 327 325 317 307 299 294 289 287 285 284 282 281 280 278 277 276 274 273 273 271 267 263 261 259 257 255 252 250 250 250 250 249 249 249 250 250 251 253 255 258 260 264 268 272 276 280 285 288 292 295 299 302 306 310 314 317 320 321 323 324 325 325 325 326 325 325 324 326 328 330 331 330 329 329 330 330 331 333 336 337 336 336 335 333